Time,TemperatureF,DewpointF,PressureIn,WindDirection,WindDirectionDegrees,WindSpeedMPH,WindSpeedGustMPH,Humidity,HourlyPrecipIn,Conditions,Clouds,dailyrainin,SoftwareType,DateUTC
2013-02-21 00:05:00,20.1,15.0,30.38,NE,34,0.0,2.0,80,0.00,,,0.00,weatherlink.com 1.10,2013-02-21 05:05:00,
2013-02-21 00:23:00,19.5,14.0,30.38,ENE,77,0.0,1.0,80,0.00,,,0.00,weatherlink.com 1.10,2013-02-21 05:23:00,
2013-02-21 00:41:00,19.4,14.0,30.39,ENE,60,0.0,1.0,80,0.00,,,0.00,weatherlink.com 1.10,2013-02-21 05:41:00,
2013-02-21 00:58:00,19.0,14.0,30.40,ENE,60,0.0,0.0,82,0.00,,,0.00,weatherlink.com 1.10,2013-02-21 05:58:00,
2013-02-21 01:16:00,18.4,14.0,30.40,ENE,60,0.0,1.0,82,0.00,,,0.00,weatherlink.com 1.10,2013-02-21 06:16:00,
2013-02-21 01:34:00,17.9,14.0,30.40,NNE,17,1.0,1.0,84,0.00,,,0.00,weatherlink.com 1.10,2013-02-21 06:34:00,
2013-02-21 01:51:00,17.6,14.0,30.39,NNE,25,1.0,1.0,84,0.00,,,0.00,weatherlink.com 1.10,2013-02-21 06:51:00,
2013-02-21 02:10:00,17.6,14.0,30.39,ENE,67,0.0,1.0,84,0.00,,,0.00,weatherlink.com 1.10,2013-02-21 07:10:00,
2013-02-21 02:28:00,17.4,13.0,30.39,NE,45,0.0,1.0,84,0.00,,,0.00,weatherlink.com 1.10,2013-02-21 07:28:00,
2013-02-21 02:45:00,16.9,13.0,30.39,NE,46,0.0,1.0,85,0.00,,,0.00,weatherlink.com 1.10,2013-02-21 07:45:00,
2013-02-21 03:03:00,16.1,13.0,30.39,NE,47,0.0,0.0,86,0.00,,,0.00,weatherlink.com 1.10,2013-02-21 08:03:00,
2013-02-21 03:21:00,15.7,13.0,30.38,NE,45,0.0,0.0,87,0.00,,,0.00,weatherlink.com 1.10,2013-02-21 08:21:00,
2013-02-21 03:39:00,15.3,12.0,30.40,NE,46,0.0,0.0,88,0.00,,,0.00,weatherlink.com 1.10,2013-02-21 08:39:00,
2013-02-21 03:56:00,15.4,13.0,30.38,NE,45,0.0,1.0,88,0.00,,,0.00,weatherlink.com 1.10,2013-02-21 08:56:00,
2013-02-21 04:15:00,15.2,12.0,30.37,NE,45,0.0,1.0,88,0.00,,,0.00,weatherlink.com 1.10,2013-02-21 09:15:00,
2013-02-21 04:32:00,14.9,12.0,30.37,NE,46,0.0,1.0,89,0.00,,,0.00,weatherlink.com 1.10,2013-02-21 09:32:00,
2013-02-21 04:50:00,15.1,12.0,30.38,NNE,29,0.0,1.0,88,0.00,,,0.00,weatherlink.com 1.10,2013-02-21 09:50:00,
2013-02-21 05:08:00,14.6,12.0,30.39,NNE,29,0.0,0.0,88,0.00,,,0.00,weatherlink.com 1.10,2013-02-21 10:08:00,
2013-02-21 05:25:00,14.9,12.0,30.39,NNE,29,0.0,1.0,89,0.00,,,0.00,weatherlink.com 1.10,2013-02-21 10:25:00,
2013-02-21 05:44:00,14.2,12.0,30.40,NNE,29,0.0,0.0,90,0.00,,,0.00,weatherlink.com 1.10,2013-02-21 10:44:00,
2013-02-21 06:01:00,13.6,11.0,30.41,NNE,29,0.0,0.0,90,0.00,,,0.00,weatherlink.com 1.10,2013-02-21 11:01:00,
2013-02-21 06:19:00,14.8,12.0,30.41,NNE,29,0.0,0.0,90,0.00,,,0.00,weatherlink.com 1.10,2013-02-21 11:19:00,
2013-02-21 06:36:00,15.8,13.0,30.41,NE,50,0.0,2.0,90,0.00,,,0.00,weatherlink.com 1.10,2013-02-21 11:36:00,
2013-02-21 06:55:00,16.6,14.0,30.41,NNE,32,1.0,2.0,89,0.00,,,0.00,weatherlink.com 1.10,2013-02-21 11:55:00,
2013-02-21 07:12:00,17.5,15.0,30.40,North,7,0.0,2.0,88,0.00,,,0.00,weatherlink.com 1.10,2013-02-21 12:12:00,
2013-02-21 07:30:00,18.3,15.0,30.39,ENE,63,2.0,4.0,87,0.00,,,0.00,weatherlink.com 1.10,2013-02-21 12:30:00,
2013-02-21 07:47:00,18.8,16.0,30.39,NE,39,0.0,4.0,87,0.00,,,0.00,weatherlink.com 1.10,2013-02-21 12:47:00,
2013-02-21 08:06:00,19.2,16.0,30.40,North,356,2.0,5.0,86,0.00,,,0.00,weatherlink.com 1.10,2013-02-21 13:06:00,
2013-02-21 08:24:00,19.6,16.0,30.40,NNE,32,2.0,3.0,86,0.00,,,0.00,weatherlink.com 1.10,2013-02-21 13:24:00,
2013-02-21 08:41:00,19.7,16.0,30.41,NNE,19,3.0,7.0,85,0.00,,,0.00,weatherlink.com 1.10,2013-02-21 13:41:00,
2013-02-21 08:59:00,20.0,16.0,30.41,North,354,2.0,5.0,84,0.00,,,0.00,weatherlink.com 1.10,2013-02-21 13:59:00,
2013-02-21 09:17:00,20.3,16.0,30.41,NE,50,2.0,6.0,84,0.00,,,0.00,weatherlink.com 1.10,2013-02-21 14:17:00,
2013-02-21 09:35:00,20.7,17.0,30.41,NE,53,5.0,6.0,84,0.00,,,0.00,weatherlink.com 1.10,2013-02-21 14:35:00,
2013-02-21 09:52:00,21.1,17.0,30.40,North,357,3.0,5.0,84,0.00,,,0.00,weatherlink.com 1.10,2013-02-21 14:52:00,
2013-02-21 10:11:00,21.3,17.0,30.39,NNW,346,1.0,5.0,82,0.00,,,0.00,weatherlink.com 1.10,2013-02-21 15:11:00,
2013-02-21 10:28:00,21.8,17.0,30.38,ENE,67,9.0,9.0,82,0.00,,,0.00,weatherlink.com 1.10,2013-02-21 15:28:00,
2013-02-21 10:46:00,22.6,18.0,30.38,NNE,22,2.0,5.0,81,0.00,,,0.00,weatherlink.com 1.10,2013-02-21 15:46:00,
2013-02-21 11:04:00,22.6,17.0,30.37,ENE,63,3.0,11.0,80,0.00,,,0.00,weatherlink.com 1.10,2013-02-21 16:04:00,
2013-02-21 11:22:00,23.5,18.0,30.39,ENE,65,3.0,5.0,80,0.00,,,0.00,weatherlink.com 1.10,2013-02-21 16:22:00,
2013-02-21 11:39:00,23.8,18.0,30.39,East,86,1.0,5.0,79,0.00,,,0.00,weatherlink.com 1.10,2013-02-21 16:39:00,
2013-02-21 11:57:00,24.0,18.0,30.38,NNE,28,3.0,5.0,79,0.00,,,0.00,weatherlink.com 1.10,2013-02-21 16:57:00,
2013-02-21 12:15:00,24.7,18.0,30.37,NNE,25,5.0,6.0,77,0.00,,,0.00,weatherlink.com 1.10,2013-02-21 17:15:00,
2013-02-21 12:32:00,26.0,20.0,30.36,NE,46,2.0,6.0,77,0.00,,,0.00,weatherlink.com 1.10,2013-02-21 17:32:00,
2013-02-21 12:50:00,27.4,20.0,30.32,NE,54,6.0,7.0,73,0.00,,,0.00,weatherlink.com 1.10,2013-02-21 17:50:00,
2013-02-21 13:08:00,27.9,20.0,30.30,NE,53,6.0,9.0,71,0.00,,,0.00,weatherlink.com 1.10,2013-02-21 18:08:00,
2013-02-21 13:26:00,27.8,19.0,30.29,NE,52,8.0,8.0,70,0.00,,,0.00,weatherlink.com 1.10,2013-02-21 18:26:00,
2013-02-21 13:43:00,29.0,20.0,30.26,ENE,71,2.0,8.0,70,0.00,,,0.00,weatherlink.com 1.10,2013-02-21 18:43:00,
2013-02-21 14:01:00,29.3,20.0,30.23,NE,53,5.0,12.0,69,0.00,,,0.00,weatherlink.com 1.10,2013-02-21 19:01:00,
2013-02-21 14:20:00,29.7,20.0,30.25,ENE,63,5.0,9.0,67,0.00,,,0.00,weatherlink.com 1.10,2013-02-21 19:20:00,
2013-02-21 14:37:00,29.9,20.0,30.22,East,91,4.0,7.0,67,0.00,,,0.00,weatherlink.com 1.10,2013-02-21 19:37:00,
2013-02-21 14:55:00,29.7,21.0,30.23,NE,40,6.0,8.0,69,0.00,,,0.00,weatherlink.com 1.10,2013-02-21 19:55:00,
2013-02-21 15:13:00,29.6,21.0,30.23,NE,50,3.0,9.0,70,0.00,,,0.00,weatherlink.com 1.10,2013-02-21 20:13:00,
2013-02-21 15:30:00,30.0,21.0,30.24,NE,56,5.0,7.0,70,0.00,,,0.00,weatherlink.com 1.10,2013-02-21 20:30:00,
2013-02-21 15:49:00,30.1,21.0,30.23,East,84,9.0,10.0,69,0.00,,,0.00,weatherlink.com 1.10,2013-02-21 20:49:00,
2013-02-21 16:07:00,30.0,21.0,30.23,NNE,32,3.0,6.0,69,0.00,,,0.00,weatherlink.com 1.10,2013-02-21 21:07:00,
2013-02-21 16:24:00,30.1,21.0,30.23,ENE,59,1.0,7.0,69,0.00,,,0.00,weatherlink.com 1.10,2013-02-21 21:24:00,
2013-02-21 16:42:00,30.0,21.0,30.22,NE,41,4.0,8.0,69,0.00,,,0.00,weatherlink.com 1.10,2013-02-21 21:42:00,
2013-02-21 16:59:00,29.9,21.0,30.23,ENE,66,3.0,7.0,69,0.00,,,0.00,weatherlink.com 1.10,2013-02-21 21:59:00,
2013-02-21 17:17:00,29.9,21.0,30.23,ENE,61,4.0,6.0,70,0.00,,,0.00,weatherlink.com 1.10,2013-02-21 22:17:00,
2013-02-21 17:36:00,29.8,21.0,30.24,NNE,31,3.0,7.0,70,0.00,,,0.00,weatherlink.com 1.10,2013-02-21 22:36:00,
2013-02-21 17:53:00,29.8,21.0,30.25,NE,39,0.0,6.0,70,0.00,,,0.00,weatherlink.com 1.10,2013-02-21 22:53:00,
2013-02-21 18:11:00,30.0,21.0,30.26,NE,41,2.0,3.0,69,0.00,,,0.00,weatherlink.com 1.10,2013-02-21 23:11:00,
2013-02-21 18:28:00,29.8,21.0,30.26,ENE,68,2.0,4.0,70,0.00,,,0.00,weatherlink.com 1.10,2013-02-21 23:28:00,
2013-02-21 18:46:00,28.8,22.0,30.25,ENE,63,3.0,8.0,77,0.00,,,0.00,weatherlink.com 1.10,2013-02-21 23:46:00,
2013-02-21 19:04:00,26.9,24.0,30.24,ENE,68,3.0,7.0,88,0.00,,,0.00,weatherlink.com 1.10,2013-02-22 00:04:00,
2013-02-21 19:21:00,26.4,24.0,30.22,NE,50,4.0,7.0,90,0.00,,,0.00,weatherlink.com 1.10,2013-02-22 00:21:00,
2013-02-21 19:40:00,26.3,24.0,30.20,NE,51,3.0,9.0,90,0.00,,,0.00,weatherlink.com 1.10,2013-02-22 00:40:00,
2013-02-21 19:58:00,26.0,24.0,30.18,East,84,4.0,9.0,92,0.00,,,0.00,weatherlink.com 1.10,2013-02-22 00:58:00,
2013-02-21 20:15:00,25.8,24.0,30.16,ENE,61,4.0,10.0,93,0.00,,,0.00,weatherlink.com 1.10,2013-02-22 01:15:00,
2013-02-21 20:33:00,25.9,24.0,30.15,East,82,4.0,12.0,93,0.00,,,0.00,weatherlink.com 1.10,2013-02-22 01:33:00,
2013-02-21 20:51:00,26.2,25.0,30.10,NE,50,8.0,12.0,93,0.00,,,0.00,weatherlink.com 1.10,2013-02-22 01:51:00,
2013-02-21 21:08:00,26.2,25.0,30.10,NE,34,8.0,10.0,93,0.00,,,0.00,weatherlink.com 1.10,2013-02-22 02:08:00,
2013-02-21 21:26:00,26.2,25.0,30.10,NE,47,7.0,11.0,93,0.00,,,0.00,weatherlink.com 1.10,2013-02-22 02:26:00,
2013-02-21 21:44:00,26.2,25.0,30.07,SSE,148,3.0,10.0,93,0.00,,,0.00,weatherlink.com 1.10,2013-02-22 02:44:00,
2013-02-21 22:01:00,26.3,25.0,30.08,ENE,65,5.0,10.0,93,0.00,,,0.00,weatherlink.com 1.10,2013-02-22 03:01:00,
2013-02-21 22:19:00,26.6,25.0,30.07,NE,45,7.0,10.0,93,0.00,,,0.00,weatherlink.com 1.10,2013-02-22 03:19:00,
2013-02-21 22:37:00,26.9,25.0,30.07,East,85,3.0,9.0,93,0.00,,,0.00,weatherlink.com 1.10,2013-02-22 03:37:00,
2013-02-21 22:55:00,27.3,26.0,30.08,ENE,71,4.0,8.0,93,0.00,,,0.00,weatherlink.com 1.10,2013-02-22 03:55:00,
2013-02-21 23:12:00,27.9,26.0,30.09,NE,55,2.0,5.0,93,0.00,,,0.00,weatherlink.com 1.10,2013-02-22 04:12:00,
2013-02-21 23:30:00,28.4,27.0,30.07,East,89,4.0,6.0,93,0.00,,,0.00,weatherlink.com 1.10,2013-02-22 04:30:00,
2013-02-21 23:48:00,28.9,27.0,30.09,ENE,59,3.0,4.0,93,0.00,,,0.00,weatherlink.com 1.10,2013-02-22 04:48:00,